Terminal Aerodrome Forecast
Issued by NWS Albany, NY

Home | Current Version | Previous Version | Text Only | Print | Product List | Glossary On
Versions: 1 2 3 4 5 6 7 8 9 10 11 12 13 14 15 16
000
FTUS41 KALY 132300 AAA
TAFPOU
TAF AMD
KPOU 132324Z 1323/1418 20010G18KT P6SM VCSH BKN035
      TEMPO 1323/1401 29020G45KT 1/2SM +TSRA OVC010CB
     FM140100 20005KT 3SM BR VCSH SCT008 OVC020
     FM140600 VRB03KT 3SM BR BKN008 OVC020
     FM141200 19006KT P6SM BKN025 OVC050=

USA.gov is the U.S. government's official web portal to all federal, state and local government web resources and services.